Overview Statistics Trail Chart Weather Telemetry Raw packets
 

This is the latest recevied weather packets stored in our database for station/object WW5JC. If no packets are shown the sender has not sent any weather packets the latest 10 day(s).

<< 62 63 64 65 66 67 68 >>
Time Temp. Humidity Pressure Rain* Wind** Luminosity Snow
1788195222 34.44° C 47% 1019.6 hPa 0 mm - 582 W/m² -
1788194918 35° C 47% 1019.8 hPa 0 mm - 576 W/m² -
1788194614 34.44° C 46% 1020 hPa 0 mm - 570 W/m² -
1788194309 35° C 46% 1019.9 hPa 0 mm - 562 W/m² -
1788194005 35° C 46% 1019.9 hPa 0 mm - 549 W/m² -
1788193703 34.44° C 47% 1020 hPa 0 mm - 539 W/m² -
1788193399 34.44° C 47% 1020.1 hPa 0 mm - 527 W/m² -
1788193097 34.44° C 48% 1020.1 hPa 0 mm - 520 W/m² -
1788192794 33.89° C 48% 1019.9 hPa 0 mm - 512 W/m² -
1788192494 33.89° C 48% 1019.9 hPa 0 mm - 504 W/m² -
1788192188 33.89° C 49% 1020 hPa 0 mm - 494 W/m² -
1788191883 33.89° C 49% 1020.1 hPa 0 mm - 479 W/m² -
1788191578 33.33° C 49% 1020 hPa 0 mm - 469 W/m² -
1788191274 33.33° C 50% 1019.8 hPa 0 mm - 456 W/m² -
1788190970 32.78° C 51% 1020.1 hPa 0 mm - 442 W/m² -
1788190669 33.33° C 50% 1019.8 hPa 0 mm - 439 W/m² -
1788190364 32.78° C 52% 1020 hPa 0 mm - 423 W/m² -
1788190059 32.78° C 53% 1019.9 hPa 0 mm - 406 W/m² -
1788189755 32.78° C 53% 1019.7 hPa 0 mm - 399 W/m² -
1788189450 32.22° C 53% 1019.7 hPa 0 mm - 386 W/m² -
1788189149 32.22° C 53% 1019.7 hPa 0 mm - 373 W/m² -
1788188844 32.22° C 56% 1019.7 hPa 0 mm - 359 W/m² -
1788188539 31.67° C 57% 1019.5 hPa 0 mm - 345 W/m² -
1788188234 32.22° C 57% 1019.6 hPa 0 mm - 332 W/m² -
1788187930 32.22° C 57% 1019.7 hPa 0 mm - 316 W/m² -

* Rain latest hour (hover to see other rain measurements)
** Current wind speed in m/s (hover to see current wind gust speed)